Location: Habighorst
(52.7089°N, 10.2278°E)
Time: 22:15:51
(UTC+00:00)

Cosmos 1470 Rocket - Pass Details

Date: 13 January 2026
Orbit: 597 x 626 km, 82.5° (Epoch: 7 February)

Event Time Altitude Azimuth Distance (km) Brightness Sun altitude
Rises 06:13:50 0° 178° (S) 2,846 7.3 -10.3°
Reaches altitude 10° 06:16:04 10° 174° (S) 1,944 6.5 -10.0°
Maximum altitude 06:20:16 57° 96° (E) 710 4.3 -9.4°
Drops below altitude 10° 06:24:30 10° 18° (NNE) 1,951 6.1 -8.8°
Sets 06:26:44 0° 14° (NNE) 2,857 6.9 -8.5°
